Tracking 20719 objects as of 26-May-2020
HD Live streaming from Space Station
objects crossing your sky now

SL-14 R/B

Track SL-14 R/B now!
10-day predictions


NORAD ID: 12988
Int'l Code: 1981-117B
Perigee: 609.9 km
Apogee: 633.0 km
Inclination: 82.5 °
Period: 97.0 minutes
Semi major axis: 6992 km
RCS: 4.5053 m2 (large)
Launch date: December 3, 1981
Source: Commonwealth of Independent States (former USSR) (CIS)
Launch site: PLESETSK MISSILE AND SPACE COMPLEX (PKMTR)

Note: This is a ROCKET BODY
aabbcc
Your satellite tracking list
Your tracking list is empty




NASA's NSSDC Master Catalog

Two Line Element Set (TLE):
1 12988U 81117B   20146.50152753 +.00000062 +00000-0 +44322-5 0  9995
2 12988 082.5225 146.5048 0016499 260.7218 214.2977 14.84767234058031
Source of the keplerian elements: AFSPC